• In Belgien
  • Länderverzeichnis
  • Für 7 Tage
  • Wassertemperatur
  • Satellitenkarten
  • Wetterkarte
  • Widgets
  • user-avatar
    Anmelden

    Stündliche Wetter Canberra

    Heute, 27 April, Freitag

    Zeit Temperatur Niederschläge Wind Luftdruck Luftfeuchtigkeit
    00:00 +13°C° 0,1 mm 1 m/S 712 mmHg 92%
    01:00 +13°C° 0,1 mm 1 m/S 713 mmHg 94%
    02:00 +12°C° 0 mm 1 m/S 713 mmHg 94%
    03:00 +12°C° 0 mm 1 m/S 713 mmHg 95%
    04:00 +12°C° 0 mm 1 m/S 713 mmHg 95%
    05:00 +11°C° 0 mm 1 m/S 713 mmHg 95%
    06:00 +11°C° 0 mm 1 m/S 713 mmHg 94%
    07:00 +11°C° 0 mm 1 m/S 714 mmHg 94%
    08:00 +12°C° 0 mm 1 m/S 714 mmHg 82%
    09:00 +14°C° 0 mm 2 m/S 714 mmHg 71%
    10:00 +16°C° 0 mm 2 m/S 715 mmHg 60%
    11:00 +17°C° 0 mm 2 m/S 715 mmHg 53%
    12:00 +19°C° 0 mm 2 m/S 715 mmHg 46%
    13:00 +20°C° 0 mm 2 m/S 715 mmHg 39%
    14:00 +19°C° 0 mm 2 m/S 715 mmHg 40%
    15:00 +19°C° 0 mm 3 m/S 714 mmHg 41%
    16:00 +19°C° 0 mm 3 m/S 714 mmHg 42%
    17:00 +16°C° 0 mm 3 m/S 715 mmHg 53%
    18:00 +13°C° 0 mm 3 m/S 715 mmHg 65%
    19:00 +12°C° 0 mm 2 m/S 715 mmHg 76%
    20:00 +10°C° 0 mm 2 m/S 715 mmHg 81%
    21:00 +9°C° 0 mm 2 m/S 715 mmHg 86%
    22:00 +8°C° 0 mm 2 m/S 716 mmHg 91%
    23:00 +8°C° 0 mm 2 m/S 716 mmHg 91%

    Morgen, 28 April, Samstag

    Zeit Temperatur Niederschläge Wind Luftdruck Luftfeuchtigkeit
    00:00 +8°C° 0 mm 2 m/S 716 mmHg 92%
    01:00 +8°C° 0 mm 2 m/S 716 mmHg 92%
    02:00 +7°C° 0 mm 2 m/S 715 mmHg 92%
    03:00 +7°C° 0 mm 2 m/S 715 mmHg 91%
    04:00 +7°C° 0 mm 2 m/S 715 mmHg 91%
    05:00 +7°C° 0 mm 2 m/S 715 mmHg 90%
    06:00 +7°C° 0 mm 2 m/S 716 mmHg 90%
    07:00 +7°C° 0 mm 2 m/S 716 mmHg 89%
    08:00 +10°C° 0 mm 2 m/S 716 mmHg 78%
    09:00 +14°C° 0 mm 2 m/S 716 mmHg 67%
    10:00 +17°C° 0 mm 2 m/S 717 mmHg 56%
    11:00 +17°C° 0 mm 2 m/S 716 mmHg 55%
    12:00 +18°C° 0 mm 2 m/S 716 mmHg 54%
    13:00 +19°C° 0 mm 2 m/S 716 mmHg 52%
    14:00 +18°C° 0 mm 2 m/S 716 mmHg 55%
    15:00 +18°C° 0 mm 2 m/S 715 mmHg 57%
    16:00 +17°C° 0 mm 2 m/S 715 mmHg 59%
    17:00 +15°C° 0 mm 2 m/S 715 mmHg 70%
    18:00 +13°C° 0 mm 2 m/S 715 mmHg 80%
    19:00 +11°C° 0 mm 1 m/S 715 mmHg 91%
    20:00 +11°C° 0 mm 1 m/S 715 mmHg 93%
    21:00 +11°C° 0 mm 1 m/S 716 mmHg 95%
    22:00 +10°C° 0 mm 1 m/S 716 mmHg 96%
    23:00 +10°C° 0 mm 1 m/S 716 mmHg 96%

    übermorgen, 29 April, Sonntag

    Zeit Temperatur Niederschläge Wind Luftdruck Luftfeuchtigkeit
    00:00 +10°C° 0 mm 1 m/S 716 mmHg 95%
    01:00 +10°C° 0 mm 1 m/S 716 mmHg 95%
    02:00 +10°C° 0 mm 1 m/S 716 mmHg 95%
    03:00 +10°C° 0 mm 1 m/S 715 mmHg 94%
    04:00 +9°C° 0 mm 1 m/S 715 mmHg 94%
    05:00 +9°C° 0 mm 1 m/S 715 mmHg 94%
    06:00 +9°C° 0 mm 1 m/S 716 mmHg 94%
    07:00 +9°C° 0 mm 1 m/S 716 mmHg 95%
    08:00 +11°C° 0 mm 1 m/S 716 mmHg 82%
    09:00 +14°C° 0 mm 1 m/S 717 mmHg 70%
    10:00 +18°C° 0 mm 1 m/S 717 mmHg 58%
    11:00 +19°C° 0 mm 1 m/S 717 mmHg 50%
    12:00 +20°C° 0 mm 1 m/S 717 mmHg 43%
    13:00 +22°C° 0 mm 1 m/S 716 mmHg 36%
    14:00 +22°C° 0 mm 1 m/S 716 mmHg 36%
    15:00 +21°C° 0 mm 1 m/S 716 mmHg 36%
    16:00 +21°C° 0 mm 1 m/S 715 mmHg 36%
    17:00 +18°C° 0 mm 1 m/S 715 mmHg 47%
    18:00 +14°C° 0 mm 1 m/S 715 mmHg 58%
    19:00 +12°C° 0 mm 1 m/S 715 mmHg 69%
    20:00 +11°C° 0 mm 1 m/S 716 mmHg 75%
    21:00 +10°C° 0 mm 1 m/S 716 mmHg 80%
    22:00 +9°C° 0 mm 1 m/S 716 mmHg 85%
    23:00 +9°C° 0 mm 1 m/S 716 mmHg 87%

    30 April, Montag

    Zeit Temperatur Niederschläge Wind Luftdruck Luftfeuchtigkeit
    00:00 +9°C° 0 mm 1 m/S 716 mmHg 88%
    01:00 +8°C° 0 mm 1 m/S 716 mmHg 90%
    02:00 +8°C° 0 mm 1 m/S 716 mmHg 89%
    03:00 +8°C° 0 mm 1 m/S 716 mmHg 89%
    04:00 +7°C° 0 mm 1 m/S 715 mmHg 89%
    05:00 +7°C° 0 mm 1 m/S 716 mmHg 86%
    06:00 +7°C° 0 mm 1 m/S 716 mmHg 83%
    07:00 +7°C° 0 mm 1 m/S 716 mmHg 80%
    08:00 +10°C° 0 mm 1 m/S 717 mmHg 64%
    09:00 +14°C° 0 mm 1 m/S 717 mmHg 47%
    10:00 +18°C° 0 mm 1 m/S 718 mmHg 31%
    11:00 +20°C° 0 mm 1 m/S 717 mmHg 28%
    12:00 +21°C° 0 mm 1 m/S 717 mmHg 24%
    13:00 +23°C° 0 mm 1 m/S 717 mmHg 21%
    14:00 +23°C° 0 mm 1 m/S 717 mmHg 22%
    15:00 +22°C° 0 mm 1 m/S 716 mmHg 23%
    16:00 +22°C° 0 mm 1 m/S 716 mmHg 24%
    17:00 +19°C° 0 mm 1 m/S 716 mmHg 34%
    18:00 +15°C° 0 mm 1 m/S 716 mmHg 43%
    19:00 +12°C° 0 mm 1 m/S 716 mmHg 52%
    20:00 +11°C° 0 mm 1 m/S 716 mmHg 56%
    21:00 +10°C° 0 mm 1 m/S 717 mmHg 60%
    22:00 +10°C° 0 mm 1 m/S 717 mmHg 64%
    23:00 +9°C° 0 mm 1 m/S 717 mmHg 65%

    1 Mai, Dienstag

    Zeit Temperatur Niederschläge Wind Luftdruck Luftfeuchtigkeit
    00:00 +9°C° 0 mm 1 m/S 716 mmHg 65%
    01:00 +9°C° 0 mm 1 m/S 716 mmHg 66%
    02:00 +8°C° 0 mm 1 m/S 716 mmHg 64%
    03:00 +8°C° 0 mm 1 m/S 716 mmHg 62%
    04:00 +8°C° 0 mm 1 m/S 715 mmHg 61%
    05:00 +8°C° 0 mm 1 m/S 716 mmHg 58%
    06:00 +8°C° 0 mm 1 m/S 716 mmHg 55%
    07:00 +8°C° 0 mm 1 m/S 716 mmHg 53%
    08:00 +12°C° 0 mm 1 m/S 716 mmHg 44%
    09:00 +15°C° 0 mm 0 m/S 717 mmHg 34%
    10:00 +19°C° 0 mm 0 m/S 717 mmHg 25%
    11:00 +20°C° 0 mm 0 m/S 717 mmHg 23%
    12:00 +24°C° 0 mm 1 m/S 716 mmHg 21%
    13:00 +25°C° 0 mm 1 m/S 716 mmHg 18%
    14:00 +24°C° 0 mm 1 m/S 715 mmHg 20%
    15:00 +23°C° 0 mm 1 m/S 715 mmHg 22%
    16:00 +23°C° 0 mm 1 m/S 715 mmHg 24%
    17:00 +20°C° 0 mm 1 m/S 714 mmHg 32%
    18:00 +15°C° 0 mm 1 m/S 714 mmHg 41%
    19:00 +12°C° 0 mm 1 m/S 714 mmHg 49%
    20:00 +12°C° 0 mm 1 m/S 714 mmHg 52%
    21:00 +11°C° 0 mm 1 m/S 714 mmHg 55%
    22:00 +11°C° 0 mm 1 m/S 714 mmHg 57%
    23:00 +11°C° 0 mm 1 m/S 714 mmHg 58%

    2 Mai, Mittwoch

    Zeit Temperatur Niederschläge Wind Luftdruck Luftfeuchtigkeit
    00:00 +10°C° 0 mm 1 m/S 714 mmHg 59%
    01:00 +10°C° 0 mm 1 m/S 713 mmHg 60%
    02:00 +10°C° 0 mm 1 m/S 713 mmHg 60%
    03:00 +10°C° 0 mm 1 m/S 713 mmHg 60%
    04:00 +10°C° 0 mm 1 m/S 713 mmHg 60%
    05:00 +10°C° 0 mm 1 m/S 713 mmHg 59%
    06:00 +9°C° 0 mm 0 m/S 713 mmHg 58%
    07:00 +9°C° 0 mm 0 m/S 713 mmHg 58%
    08:00 +12°C° 0 mm 1 m/S 713 mmHg 51%
    09:00 +15°C° 0 mm 1 m/S 713 mmHg 45%
    10:00 +18°C° 0 mm 1 m/S 713 mmHg 39%
    11:00 +19°C° 0 mm 1 m/S 712 mmHg 38%
    12:00 +18°C° 0 mm 2 m/S 712 mmHg 37%
    13:00 +19°C° 0 mm 2 m/S 711 mmHg 36%
    14:00 +19°C° 0 mm 2 m/S 711 mmHg 38%
    15:00 +19°C° 0 mm 2 m/S 711 mmHg 39%
    16:00 +19°C° 0 mm 2 m/S 710 mmHg 40%
    17:00 +17°C° 0 mm 2 m/S 710 mmHg 47%
    18:00 +15°C° 0 mm 1 m/S 710 mmHg 54%
    19:00 +13°C° 0 mm 1 m/S 710 mmHg 62%
    20:00 +13°C° 0 mm 1 m/S 710 mmHg 66%
    21:00 +12°C° 0 mm 1 m/S 710 mmHg 70%
    22:00 +11°C° 0 mm 1 m/S 710 mmHg 74%
    23:00 +11°C° 0 mm 1 m/S 710 mmHg 77%
    Mehr zeigen